THOR ABLESTAR DEB, 136

Orbit data source: Space-Track

THOR ABLESTAR DEB, 136 is space debris in LEO originally from a launch on Thu, 29 Jun 1961 UTC launched from the Air Force Eastern Test Range (AFETR). Debris objects in space refer to the collection of defunct objects orbiting the Earth. Examples of debris include non-operational satellites, rocket bodies, and fragments generated from explosions, collisions, or faulty payload assembly.

Loading next visibility...
Identifier
136, 1961-015W
Orbit
LEO
Country
Flag of USUS
Related business
Manufacturer
Unknown
Mission
Spacecraft
Bus & Motor
Unknown
Mass
Unknown
Launch date (UTC)
1961-06-29 (64 years ago)
Launch vehicle
Unknown
Launch site
Air Force Eastern Test Range (AFETR)
Object type
Payload
Rocket body
Debris
Shape & HBR
Unknown shape, 0.4 m
Radar Cross Section
Small (<0.1 m²)

Expand to show TLE details & history
Last TLE update: 7 hours ago

TLE from 7 hours ago
0 THOR ABLESTAR DEB
1   136U 61015W   25293.09550654  .00003156  00000-0  98735-3 0  9998
2   136  67.5294 179.2992 0051736 254.3896 105.1501 14.41103514322153
Epoch: 2025-10-20T02:17Z
TLE epoch observation values (Epoch: 2025-10-20T02:17:31.765Z)
Latitude
-0.00003°
Longitude
116.1141°
Altitude
766.86 km
Speed
7.466 km/s
True Right ascension
11h 57m 11s
True Declination
0° 00' 00"
Sunlit
Object was in daylight at epoch
Visualization orbit readout
Latitude
Unknown
Longitude
Unknown
Altitude
Unknown
Speed
Unknown
Apparent Right ascension
Unknown
Apparent Declination
Unknown
Sunlit
N/A
Visualization observer readout
Local Sidereal Time
04:33:07
Azimuth
Unknown
Elevation
Unknown
Doppler factor
Unknown
Orbital elements
Apogee altitude
790.019 km
Perigee altitude
716.231 km
Semi-major axis
7,131.262 km
Eccentricity
0.00517
Inclination
67.5294°
RAAN
179.2992°
Arg. of periapsis
254.3896°
True anomaly
105.72137°
Mean anomaly
105.1501°
Eccentric anomaly
105.43583°
Mean motion
3.60407 °/min
Orbital period
99.89 mins
BSTAR
0.00098735

Documentation

Showing up to 5 results
|